Location: *
(34.6903°N, 135.5184°E)
Time: 04:28:24
(UTC+00:00)

PSLV R/B - Pass Details

Date: 22 September 2019
Orbit: 594 x 629 km, 97.9° (Epoch: 17 October)

Event Time Altitude Azimuth Distance (km) Brightness Sun altitude
Rises 19:03:09 0° 5° (N) 2,914 7.3 -21.7°
Reaches altitude 10° 19:05:25 10° 360° (N) 1,999 6.3 -21.3°
Maximum altitude 19:09:36 49° 286° (WNW) 805 3.7 -20.4°
Enters shadow 19:09:38 49° 284° (WNW) 805 3.7 -20.4°
